{"data":{"norad_id":60490,"epoch":"2026-09-19T04:48:03.804192Z","epoch_age_seconds":130481,"freshness":"FRESH","line1":"1 60490U 24149Y   26262.20004403  .00021394  00000+0  53294-3 0  9994","line2":"2 60490  97.3719 345.1813 0002087 299.8722  60.2317 15.40258592116657","mean_motion":15.40258592,"eccentricity":0.0002087,"inclination_deg":97.3719,"raan_deg":345.1813,"arg_perigee_deg":299.8722,"mean_anomaly_deg":60.2317,"bstar":0.00053294,"rev_number":11665,"period_min":93.490794823627,"perigee_km":443.92142661944,"apogee_km":446.76954820969,"semimajor_km":6823.4824874146,"source":"CELESTRAK","updated_at":"2026-09-20T09:00:34.712778Z"}}